Upper Bear Creek Observed Data For Previous 48 Hours

Caption
Day and Hour Reservoir Elevation (behind dam)* Tailwater Elevation (below dam)* Average Hourly Discharge*
5/24/2018 1 AM CDT 797.20 725.82 46
5/24/2018 2 AM CDT 797.20 725.82 46
5/24/2018 3 AM CDT 797.20 725.82 46
5/24/2018 4 AM CDT 797.20 725.82 46
5/24/2018 5 AM CDT 797.20 725.83 46
5/24/2018 6 AM CDT 797.20 725.83 46
5/24/2018 7 AM CDT 797.20 725.83 46
5/24/2018 8 AM CDT 797.21 725.83 47
5/24/2018 9 AM CDT 797.20 725.84 47
5/24/2018 10 AM CDT 797.21 725.84 47
5/24/2018 11 AM CDT 797.21 725.84 48
5/24/2018 12 PM CDT 797.21 725.84 48
5/24/2018 1 PM CDT 797.21 725.84 48
5/24/2018 2 PM CDT 797.21 725.85 48
5/24/2018 3 PM CDT 797.21 725.84 48
5/24/2018 4 PM CDT 797.21 725.85 48
5/24/2018 5 PM CDT 797.21 725.85 48
5/24/2018 6 PM CDT 797.21 725.85 48
5/24/2018 7 PM CDT 797.21 725.85 48
5/24/2018 8 PM CDT 797.21 725.84 48
5/24/2018 9 PM CDT 797.21 725.85 48
5/24/2018 10 PM CDT 797.22 725.85 49
5/24/2018 11 PM CDT 797.21 725.85 49
5/25/2018 12 AM CDT 797.21 725.85 48
5/25/2018 1 AM CDT 797.21 725.85 48
5/25/2018 2 AM CDT 797.22 725.85 49
5/25/2018 3 AM CDT 797.22 725.85 49
5/25/2018 4 AM CDT 797.22 725.85 49
5/25/2018 5 AM CDT 797.22 725.85 49
5/25/2018 6 AM CDT 797.22 725.85 49
5/25/2018 7 AM CDT 797.22 725.86 49
5/25/2018 8 AM CDT 797.22 725.86 49
5/25/2018 9 AM CDT 797.22 725.86 49
5/25/2018 10 AM CDT 797.22 725.86 49
5/25/2018 11 AM CDT 797.22 725.86 49
5/25/2018 12 PM CDT 797.22 725.86 49
5/25/2018 1 PM CDT 797.22 725.86 49
5/25/2018 2 PM CDT 797.22 725.86 49
5/25/2018 3 PM CDT 797.22 725.86 49
5/25/2018 4 PM CDT 797.22 725.97 49
5/25/2018 5 PM CDT 797.22 726.02 136
5/25/2018 6 PM CDT 797.23 725.91 50
5/25/2018 7 PM CDT 797.23 725.88 51
5/25/2018 8 PM CDT 797.22 725.87 50
5/25/2018 9 PM CDT 797.22 725.87 49
5/25/2018 10 PM CDT 797.22 725.87 49
5/25/2018 11 PM CDT 797.23 725.88 50
5/26/2018 12 AM CDT 797.23 727.02 103
5/26/2018 1 AM CDT 797.22 727.01 262
5/26/2018 2 AM CDT 797.22 727.02 261
5/26/2018 3 AM CDT 797.21 727.00 261
5/26/2018 4 AM CDT 797.20 727.00 259
5/26/2018 5 AM CDT 797.20 727.01 258
5/26/2018 6 AM CDT 797.19 727.00 258
5/26/2018 7 AM CDT 797.18 727.00 256
5/26/2018 8 AM CDT 797.17 727.00 255
5/26/2018 9 AM CDT 797.16 726.99 253
5/26/2018 10 AM CDT 797.16 726.99 253
5/26/2018 11 AM CDT 797.15 726.99 252

Elevations are in feet above sea level. Discharges are in cubic feet per second and are reported at the end of the hour.